Regional Weather Roundup
Issued by NWS San Diego, CA

Home | Current Version | Previous Version | Text Only | Print | Product List | Glossary On
Versions: 1 2 3 4 5 6 7 8 9 10 11 12 13 14 15 16 17 18 19 20 21 22 23 24 25 26 27 28 29 30 31 32 33 34 35 36 37 38 39 40 41 42 43 44 45 46 47 48 49 50
000
ASUS46 KSGX 262004
RWRSGX

SAN DIEGO HOURLY WEATHER ROUNDUP
NATIONAL WEATHER SERVICE SAN DIEGO CA
100 PM PDT FRI MAY 26 2017

NOTE: "FAIR" INDICATES FEW OR NO CLOUDS BELOW 12,000 FEET WITH NO
SIGNIFICANT WEATHER AND/OR OBSTRUCTIONS TO VISIBILITY.

CAZ042-043-060-061-PZZ750-775-262100-

GREATER SAN DIEGO AREA

CITY           SKY/WX    TMP DP  RH WIND       PRES   REMARKS
SAN DIEGO AP   PTSUNNY   69  51  52 W12G22    30.02R
NATIONAL CITY    N/A     68  57  67 SW10      30.01R
CHULA VISTA      N/A     69  57  67 W1        29.93R
IMPERIAL BEACH PTSUNNY   69  53  56 W14       30.02R
BROWN FIELD    MOSUNNY   69  49  48 W10G21    30.00R
MIRAMAR MCAS   PTSUNNY   72  48  42 W9        30.00R
MONTGOMERY FLD PTSUNNY   68  48  48 W9        30.01R

$$

NORTH SAN DIEGO COUNTY

CITY           SKY/WX    TMP DP  RH WIND       PRES   REMARKS
CAMP PENDLETON PTSUNNY   72  51  47 S9        29.99S
OCEANSIDE AP   SUNNY     72  52  49 SW10G20   29.99R
OCEANSIDE HBR    N/A     66  57  71 SW3       30.03R
VISTA            N/A     68  53  60 W1        29.97S
CARLSBAD       MOSUNNY   69  51  52 W14       30.00R
DEL MAR          N/A     68  57  68 W2        30.03R
LA JOLLA SCRIP   N/A     65  57  75 W8        30.01R
FALLBROOK        N/A     70  53  56 S2        30.00S
ESCONDIDO        N/A     74  52  46 W5        30.00S
SAN MARCOS       N/A     67  52  59 W7        30.01R
POWAY            N/A     73  51  46 CALM      30.01R

$$

EAST SAN DIEGO COUNTY

CITY           SKY/WX    TMP DP  RH WIND       PRES   REMARKS
RAMONA         SUNNY     69  47  45 VRB5      29.99S
SANTEE LAKES     N/A     72  52  49 CALM      29.98R
LA MESA          N/A     67  50  54 NW5       29.93R
JAMUL            N/A     68  52  56 CALM      29.99R
DESCANSO N       N/A     60  46  61 W8        29.95R
CAMPO            N/A     65  47  52 SW18      29.96R

$$

ORANGE COUNTY AND THE LOS ANGELES BASIN

CITY           SKY/WX    TMP DP  RH WIND       PRES   REMARKS
JOHN WAYNE AP  PTSUNNY   70  50  49 SW15      30.00R
LAGUNA BEACH     N/A     71  57  60 S3        29.96R
LAKE FOREST FR   N/A     70  46  42 W2        29.88R
HUNTINGTON BCH   N/A     70  59  67 SW8       30.02R
LOS ALAMITOS   PTSUNNY   68  52  56 S14G20    30.00R
FULLERTON      PTSUNNY   71  52  50 S9        29.99R
LONG BEACH     MOSUNNY   69  50  50 S10       30.00R
L.A. AP        PTSUNNY   67  53  61 SW9       30.00R
L.A. DOWNTOWN  CLOUDY    69  53  56 VRB3      29.99R

$$

THE INLAND EMPIRE

CITY           SKY/WX    TMP DP  RH WIND       PRES   REMARKS
CORONA         SUNNY     73  47  39 W10       29.98S
CHINO          MOSUNNY   74  46  36 NW5       29.98F
ONTARIO        PTSUNNY   72  45  37 W13       29.98S
SAN BERNARDINO MOSUNNY   72  43  35 W7        29.99S
RIVERSIDE AP   MOSUNNY   71  46  40 W9G17     29.98S
MORENO VALLEY    N/A     71  51  49 S2        28.11S
MARCH ARB      MOSUNNY   70  44  39 N8        29.97S
HORSETHIEF CYN   N/A     70  43  36 CALM      29.97S
PERRIS           N/A     70  48  46 NW6       29.98F
HEMET EAST       N/A     66  41  39 W7        30.03S
FRENCH VALLEY  FAIR      66  45  45 SW6       29.99S
TEMECULA         N/A     70  51  51 W8        30.03S

$$

SAN BERNARDINO AND RIVERSIDE COUNTY MOUNTAINS

CITY           SKY/WX    TMP DP  RH WIND       PRES   REMARKS
BIG BEAR AP    SUNNY     66  21  18 SW9       30.07R
ANGELUS OAKS     N/A     62  44  52 CALM      29.88R
PINE COVE        N/A     61  39  44 W1        29.86R

$$

SOUTHERN DESERT INCLUDING THE COACHELLA VALLEY

CITY           SKY/WX    TMP DP  RH WIND       PRES   REMARKS
PALM SPRINGS   SUNNY     83  42  23 NW14G21   29.84S
PALM DESERT      N/A     85  44  23 NE3         N/A
THERMAL        SUNNY     85  40  20 CALM      29.79S
BLYTHE         SUNNY     87  31  13 SW13G25   29.80S
IMPERIAL AP    LGT RAIN  87  40  19 S8G16     29.80F
EL CENTRO NAS  SUNNY     87  31  13 S6        29.81F
MEXICALI       SUNNY     84  30  14 S3        29.82F

$$

UPPER DESERT

CITY           SKY/WX    TMP DP  RH WIND       PRES   REMARKS
VICTORVILLE AP MOSUNNY   77  30  18 W9G17     29.90S
HESPERIA         N/A     69  43  38 W12       30.00S
PALMDALE       SUNNY     70  43  37 SW22      29.92S
LANCASTER      SUNNY     68  44  42 SW24G37   29.91S
EDWARDS AFB    MOSUNNY   71  40  31 SW29G36   29.85F
DAGGETT        SUNNY     82  32  16 W18G24    29.83F
29 PALMS N     SUNNY     86  19   8 CALM      29.89F
NEEDLES        SUNNY     92  26   9 SW15G23   29.78F

$$

REGIONAL REPORTS

CITY           SKY/WX    TMP DP  RH WIND       PRES   REMARKS
SANTA BARBARA  PTSUNNY   65  54  67 SW10      30.01R
SANDBERG       SUNNY     57  45  64 S23G33    30.00R
LAS VEGAS NV   SUNNY     86  22   9 VRB7      29.76S
PHOENIX AZ     SUNNY     90  26  10 SW7       29.81F
TIJUANA        MOSUNNY   68  45  42 W9        30.03R
ENSENADA NW      N/A     69  32  25 N8        29.99R

$$

OFFSHORE ISLANDS

CITY           SKY/WX    TMP DP  RH WIND       PRES   REMARKS
CATALINA ARPT  CLOUDY    58  50  75 W6        30.03R
SAN CLEMENTE I CLOUDY    66  54  65 W10       30.03S
SAN NICOLAS IS PTSUNNY   63  53  70 N5        30.02R

$$

MARINE AND OFFSHORE BUOY REPORTS

STATION/POSITION SKY/WX   TEMP    WIND        PRES    VSBY  SWELL
                          AIR SEA DIR/SP/G                  HT/PER/DIR
                          (F)     (DEG/KT/KT) (MB)    (MI)  (FT/S/D)
TANNER BANKS               60 62  290/  4/  6 1016.1          5/310/11
S CLEMENTE BASIN           62 63  220/  4/  6 1016.4          3/260/11
SAN NICOLAS IS.               62                N/A           3/310/11
SO. S. ROSA ISLA           58 58  270/  2/  4 1016.1          5/290/11
W. S. BARBARA CH           56 56  300/  6/  8 1016.5R
M. S. BARBARA CH           58 57  280/  2/  4 1017.0R         2/260/11
S. MONICA BASIN            61 63  280/  6/  8 1016.1R         2/190/13
S PEDRO CHANNEL               64                N/A           2/280/11
CMP PENDLETON NS              63                N/A           2/210/13
OCEANSIDE OFFSHR              62                N/A           2/190/14
TORREY PINES OTR              65                N/A           2/200/15
SAN DIEGO BAY                 67              1016.4R
POINT LOMA SOUTH              65                N/A           3/200/17

$$





USA.gov is the U.S. government's official web portal to all federal, state and local government web resources and services.